星链-33990 (STARLINK-33990)

导读 | 豆包AI

STARLINK-33990是美国太空探索技术公司(SpaceX)于2025年5月7日发射的第二代星链(Starlink)组网卫星,属于星链全球卫星互联网星座的组成部分。该卫星运行在低地球轨道,配备增强型相控阵天线与激光星间链路,可提供低延迟高速宽带服务,支持全球范围(含偏远地区)的互联网接入,是星链第二代星座扩容部署的最新批次卫星,助力实现全球完整覆盖,单星容量超100Gbps,具备自主轨道机动与避碰能力,退役后可在大气层完全烧毁减少空间碎片。

Basic Information
目录编号:
63840
目录名称:
STARLINK-33990
国际标识:
2025-093E
轨道中心:
EARTH
卫星名称:
星链-33990
卫星全名:
星链-33990 (STARLINK-33990)
卫星状态:
在轨 (已飞行357 天)
发射日期:
2025-05-07 UTC
国别 :
美国 (US)
星等 :
--
Orbit Information
数据来源 国际轨道数据 AOE轨道数据
星历时间 2026-04-29T20:01:51+0800
8小时前
查看轨道信息
2026-04-24T08:00:00+0800
5天前
查看轨道信息
半长轴 6861.193km 6861.213km
偏心率 0.0000698 0.0000936
轨道倾角 42.996° 42.999°
近地点辐角 141.541° 271.931°
升交点赤经 150.888° 181.961°
平近点角 218.549° 39.531°
近地点 482.577km 482.433km
远地点 483.535km 483.719km
周期 94.267分钟 94.267分钟
每日圈数 15.275777 15.275712
Detailed Information
固有亮度:
5
最大亮度:
2.5
卫星平台:
Starlink V1.0
覆盖范围:
全球
运营商:
太空探索技术公司
运营商所在国:
美国
制造商(研发单位):
太空探索技术公司
制造商所在国:
美国
使用方式:
暂无
Satellite Introduction
Starlink 计划是 SpaceX 推出的全球卫星互联网项目,通过发射低轨道卫星,为全球尤其是偏远地区提供高速、低延迟的互联网服务。自 2019 年起,Starlink 已部署数千颗卫星,旨在缩小全球数字鸿沟,推动互联网普及。该项目还为军事、航空等行业提供通信支持,带来广泛经济效益。
2D Orbit Map
3D Orbit Map
Orbit Altitude Analysis Chart
Orbit Inclination Analysis Chart
Orbit Comprehensive Analysis Chart
View Comprehensive Chart